Location: Unspecified
(48.7670°N, 0.0000°E)
Time: 20:45:10
(UTC+00:00)

S-56A Canister/Altair - Pass Details

Date: 26 October 2019
Orbit: 634 x 2498 km, 38.9° (Epoch: 13 November)

Event Time Altitude Azimuth Distance (km) Brightness Sun altitude
Exits shadow 03:05:10 33° 146° (SE) 1,831 9.4 -34.9°
Drops below altitude 10° 03:10:57 10° 112° (ESE) 3,530 11.4 -34.0°
Sets 03:14:52 0° 105° (ESE) 4,839 12.3 -33.4°
